NOAA 16 DEB, 41275

Orbit data source: Space-Track

NOAA 16 DEB, 41275 is space debris in SSO originally from a launch on Thu, 21 Sep 2000 UTC launched from the Air Force Western Test Range (AFWTR). Debris objects in space refer to the collection of defunct objects orbiting the Earth. Examples of debris include non-operational satellites, rocket bodies, and fragments generated from explosions, collisions, or faulty payload assembly.

Loading next visibility...
Identifier
41275, 2000-055GB
Orbit
SSO
Country
Flag of USUS
Related business
Manufacturer
Unknown
Mission
Spacecraft
Bus & Motor
Unknown
Mass
Unknown
Launch date (UTC)
2000-09-21 (25 years ago)
Launch vehicle
Unknown
Launch site
Air Force Western Test Range (AFWTR)
Object type
Payload
Rocket body
Debris
Shape & HBR
Unknown shape, 0.1 m
Radar Cross Section
Small (<0.1 m²)

Expand to show TLE details & history
Last TLE update: 2 days ago

TLE from 2 days ago
0 NOAA 16 DEB
1 41275U 00055GB  25348.37261500  .00004782  00000-0  20247-2 0  9993
2 41275  98.6857  39.1043 0017811 340.5838  19.4661 14.25834844514867
Epoch: 2025-12-14T08:56Z
TLE epoch observation values (Epoch: 2025-12-14T08:56:33.936Z)
Latitude
-0.00009°
Longitude
-178.32356°
Altitude
796.547 km
Speed
7.462 km/s
True Right ascension
02h 36m 25s
True Declination
0° 00' 00"
Sunlit
Object was in full shadow at epoch
Visualization orbit readout
Latitude
Unknown
Longitude
Unknown
Altitude
Unknown
Speed
Unknown
Apparent Right ascension
Unknown
Apparent Declination
Unknown
Sunlit
N/A
Visualization observer readout
Local Sidereal Time
22:13:34
Azimuth
Unknown
Elevation
Unknown
Doppler factor
Unknown
Orbital elements
Apogee altitude
815.627 km
Perigee altitude
790.047 km
Semi-major axis
7,180.974 km
Eccentricity
0.00178
Inclination
98.6857°
RAAN
39.1043°
Arg. of periapsis
340.5838°
True anomaly
19.53426°
Mean anomaly
19.4661°
Eccentric anomaly
19.50017°
Mean motion
3.56671 °/min
Orbital period
100.93 mins
BSTAR
0.0020247
Loading maneuver chart data...
Computing Atmospheric mass density...
Loading historical data...
Loading historical data...
Loading historical data...
Loading historical data...
Loading historical data...
Loading historical data...
Loading historical data...

Documentation

Showing up to 5 results
|